Temp
-8 -8 -8 -8 -8 -7 -7 -7 -7 -6 -6 -6 -6 -6 -6 -6 -7 -7 -7 -7 -6 -6 -6 -6 -5 -5 -5 -6 -6 -6 -7 -7 -9 -8 -8 -7 -8 -7 -7 -7 -7 -7 -7 -7 -6
-8 -7 -8 -8 -7 -7 -7 -7 -7 -6 -6 -6 -6 -6 -6 -7 -7 -7 -7 -6 -6 -6 -6 -6 -5 -5 -5 -6 -6 -6 -6 -7 -9 -8 -8 -8 -8 -7 -7 -7 -7 -7 -7 -7 -7
-8 -7 -7 -7 -7 -7 -7 -7 -6 -6 -6 -7 -7 -6 -6 -7 -6 -7 -7 -6 -6 -6 -6 -6 -6 -6 -6 -6 -6 -6 -6 -7 -9 -9 -9 -8 -8 -8 -8 -8 -8 -8 -8 -7 -8
-8 -8 -7 -7 -7 -7 -7 -7 -6 -6 -7 -7 -7 -6 -6 -6 -6 -6 -6 -6 -6 -6 -6 -6 -6 -6 -6 -6 -6 -6 -6 -7 -9 -10 -8 -8 -9 -8 -8 -7 -7 -8 -8 -8 -8
-8 -7 -7 -7 -7 -7 -7 -7 -6 -7 -7 -7 -6 -6 -6 -6 -6 -6 -6 -6 -6 -6 -6 -6 -6 -6 -6 -6 -6 -6 -7 -7 -8 -9 -7 -9 -9 -8 -9 -8 -8 -8 -8 -8 -8
-8 -8 -7 -7 -7 -7 -7 -7 -7 -7 -7 -7 -6 -6 -7 -6 -6 -6 -6 -6 -6 -6 -6 -6 -6 -6 -6 -6 -7 -7 -7 -7 -7 -7 -8 -9 -9 -10 -8 -8 -8 -9 -9 -9 -9
-8 -8 -8 -7 -7 -7 -7 -7 -7 -7 -7 -7 -7 -7 -7 -7 -7 -7 -6 -7 -7 -6 -6 -6 -6 -6 -6 -7 -7 -7 -7 -8 -7 -7 -8 -8 -9 -8 -9 -8 -9 -9 -9 -9 -9
-8 -8 -8 -8 -8 -8 -7 -7 -7 -7 -7 -7 -7 -7 -7 -7 -7 -7 -6 -7 -6 -7 -7 -6 -6 -6 -6 -7 -7 -7 -7 -7 -7 -8 -8 -8 -8 -8 -8 -9 -9 -9 -9 -9 -9
-8 -8 -8 -8 -8 -8 -8 -8 -8 -7 -7 -7 -7 -7 -7 -7 -7 -7 -7 -7 -7 -7 -7 -7 -7 -6 -7 -7 -7 -7 -7 -7 -8 -8 -8 -8 -8 -10 -10 -10 -10 -10 -10 -10 -10
-8 -8 -8 -8 -8 -8 -8 -8 -8 -8 -8 -8 -8 -8 -8 -8 -7 -7 -7 -7 -7 -7 -7 -7 -7 -7 -6 -7 -8 -11 -10 -8 -10 -10 -7 -8 -9 -10 -9 -10 -9 -9 -10 -10 -10
-8 -9 -9 -8 -8 -9 -9 -9 -9 -9 -9 -9 -8 -8 -8 -8 -8 -8 -8 -8 -8 -7 -8 -7 -7 -7 -8 -8 -8 -10 -10 -11 -11 -11 -11 -9 -11 -11 -9 -10 -9 -8 -10 -11 -11
-9 -9 -8 -8 -9 -9 -9 -9 -9 -9 -9 -9 -9 -9 -9 -9 -8 -8 -8 -8 -8 -8 -8 -8 -8 -9 -9 -8 -8 -8 -8 -9 -10 -11 -11 -11 -11 -11 -9 -9 -10 -10 -10 -10 -11
-9 -9 -9 -9 -9 -9 -9 -9 -9 -9 -9 -9 -9 -9 -9 -9 -9 -9 -9 -9 -9 -9 -9 -9 -10 -10 -9 -8 -9 -9 -9 -9 -11 -12 -11 -9 -9 -10 -11 -10 -10 -10 -10 -10 -10
-9 -9 -10 -10 -10 -10 -10 -10 -10 -10 -11 -10 -10 -10 -10 -10 -10 -10 -10 -10 -10 -10 -10 -10 -10 -10 -9 -9 -10 -10 -10 -10 -10 -11 -12 -12 -10 -11 -11 -11 -11 -10 -10 -10 -10
-9 -9 -9 -10 -10 -10 -10 -10 -10 -11 -11 -11 -11 -11 -11 -11 -12 -11 -11 -11 -11 -12 -12 -12 -13 -11 -11 -11 -12 -12 -12 -11 -13 -11 -11 -12 -12 -11 -11 -11 -11 -11 -10 -10 -10
-10 -10 -10 -10 -10 -10 -10 -11 -11 -12 -13 -12 -12 -12 -13 -12 -12 -12 -12 -12 -12 -12 -12 -12 -12 -14 -12 -13 -14 -14 -12 -12 -13 -13 -12 -12 -12 -11 -11 -11 -12 -11 -11 -12 -11
-10 -10 -10 -11 -11 -11 -11 -11 -12 -13 -13 -12 -12 -12 -12 -12 -12 -12 -13 -14 -14 -13 -14 -12 -13 -13 -13 -14 -13 -14 -14 -13 -12 -12 -12 -12 -12 -11 -12 -11 -12 -12 -12 -12 -12
-11 -11 -11 -11 -11 -12 -12 -12 -12 -12 -12 -12 -12 -12 -12 -12 -13 -13 -13 -15 -14 -13 -13 -14 -13 -12 -13 -13 -13 -13 -13 -13 -12 -11 -11 -11 -11 -11 -12 -12 -12 -12 -12 -12 -13
-12 -12 -12 -12 -12 -12 -12 -13 -13 -12 -12 -12 -12 -12 -14 -13 -13 -13 -13 -13 -13 -12 -13 -13 -14 -14 -13 -13 -13 -13 -13 -13 -13 -13 -13 -12 -11 -11 -12 -12 -13 -12 -12 -13 -13
-12 -12 -12 -12 -12 -12 -12 -13 -13 -13 -13 -13 -13 -13 -13 -13 -13 -14 -15 -15 -14 -14 -14 -14 -13 -14 -14 -14 -14 -14 -14 -14 -14 -13 -13 -12 -12 -12 -12 -12 -11 -12 -13 -13 -14
-12 -12 -12 -13 -13 -13 -13 -13 -13 -13 -13 -13 -13 -13 -14 -14 -14 -15 -16 -15 -14 -15 -16 -16 -15 -15 -15 -15 -15 -16 -15 -14 -14 -14 -14 -13 -12 -12 -12 -12 -12 -13 -13 -13 -14
-12 -13 -13 -13 -13 -13 -13 -13 -13 -13 -13 -13 -14 -14 -14 -14 -15 -16 -16 -17 -16 -17 -16 -17 -16 -16 -16 -16 -16 -16 -16 -15 -14 -13 -13 -13 -12 -13 -12 -12 -13 -13 -13 -13 -13
-13 -13 -13 -13 -13 -13 -14 -13 -14 -13 -14 -14 -14 -14 -14 -15 -16 -17 -17 -17 -17 -17 -17 -17 -17 -17 -16 -18 -18 -18 -18 -16 -16 -15 -14 -16 -15 -14 -13 -13 -14 -14 -14 -14 -14
-13 -13 -13 -13 -13 -14 -14 -14 -14 -14 -14 -14 -14 -14 -14 -15 -16 -16 -17 -17 -18 -17 -17 -17 -18 -18 -19 -20 -20 -20 -20 -19 -18 -16 -16 -15 -15 -15 -15 -14 -14 -14 -14 -14 -14
-13 -13 -13 -14 -14 -14 -14 -14 -14 -14 -14 -14 -14 -14 -14 -15 -16 -16 -17 -18 -18 -18 -18 -18 -18 -18 -19 -21 -21 -20 -19 -19 -19 -19 -17 -16 -16 -16 -16 -15 -15 -15 -14 -15 -15
-13 -14 -14 -14 -14 -14 -14 -14 -15 -15 -15 -15 -15 -14 -15 -15 -15 -16 -17 -18 -18 -18 -18 -18 -19 -19 -19 -20 -19 -20 -19 -19 -19 -19 -19 -19 -17 -16 -17 -17 -16 -16 -16 -16 -17
-14 -14 -14 -14 -14 -14 -14 -15 -15 -15 -15 -15 -15 -15 -15 -15 -15 -16 -17 -19 -19 -19 -19 -19 -19 -19 -19 -20 -20 -20 -19 -19 -19 -19 -19 -19 -18 -18 -18 -17 -17 -18 -17 -17 -17
Height
5887 5887 5886 5886 5886 5885 5885 5884 5883 5881 5879 5876 5876 5876 5877 5877 5877 5878 5880 5883 5885 5886 5887 5888 5889 5889 5890 5890 5893 5894 5894 5897 5905 5913 5912 5903 5905 5902 5902 5903 5902 5901 5899 5899 5899
5879 5879 5880 5880 5880 5879 5879 5878 5877 5876 5874 5873 5872 5872 5873 5873 5873 5874 5877 5879 5881 5882 5883 5884 5885 5885 5886 5886 5888 5889 5891 5896 5904 5911 5910 5899 5900 5899 5900 5900 5900 5899 5897 5897 5898
5874 5874 5875 5875 5875 5874 5874 5873 5873 5872 5870 5869 5869 5869 5869 5870 5870 5872 5873 5875 5877 5878 5879 5880 5881 5881 5882 5882 5884 5885 5887 5893 5897 5902 5898 5896 5896 5894 5895 5895 5895 5895 5895 5894 5895
5871 5871 5870 5871 5870 5870 5869 5869 5868 5867 5866 5866 5865 5866 5866 5866 5868 5868 5870 5871 5873 5874 5875 5876 5877 5877 5878 5878 5878 5879 5882 5885 5888 5893 5887 5893 5895 5890 5892 5895 5891 5892 5892 5892 5893
5867 5867 5867 5867 5867 5866 5865 5864 5863 5863 5862 5862 5862 5862 5862 5863 5863 5864 5865 5867 5868 5869 5871 5872 5872 5872 5873 5873 5873 5875 5877 5878 5879 5879 5881 5884 5887 5889 5884 5889 5888 5889 5889 5889 5890
5864 5863 5863 5863 5863 5861 5860 5860 5859 5859 5858 5858 5858 5858 5858 5859 5859 5860 5860 5862 5863 5865 5865 5866 5868 5868 5869 5869 5870 5870 5872 5873 5874 5875 5877 5878 5882 5879 5881 5883 5885 5886 5886 5886 5886
5860 5860 5859 5859 5858 5857 5856 5856 5855 5855 5855 5854 5855 5854 5855 5855 5855 5856 5856 5857 5858 5860 5860 5861 5862 5863 5863 5865 5865 5866 5867 5867 5869 5870 5871 5872 5874 5871 5873 5877 5881 5882 5882 5882 5883
5857 5856 5856 5855 5854 5853 5852 5852 5852 5851 5851 5850 5850 5850 5851 5851 5852 5852 5852 5853 5853 5854 5855 5856 5856 5858 5859 5859 5860 5861 5861 5861 5863 5864 5864 5865 5867 5869 5868 5872 5874 5877 5878 5878 5878
5853 5853 5852 5851 5850 5849 5849 5848 5848 5847 5847 5846 5846 5847 5848 5847 5848 5848 5848 5848 5848 5849 5849 5850 5852 5852 5853 5854 5855 5856 5857 5857 5859 5855 5859 5859 5862 5867 5863 5864 5864 5868 5870 5871 5872
5849 5849 5848 5846 5846 5845 5845 5844 5844 5844 5843 5843 5843 5844 5843 5843 5842 5843 5843 5842 5843 5843 5844 5845 5845 5847 5848 5848 5850 5854 5853 5853 5856 5852 5851 5852 5856 5850 5855 5858 5858 5859 5863 5864 5866
5846 5845 5844 5843 5843 5842 5842 5841 5842 5842 5840 5840 5840 5839 5838 5838 5838 5838 5838 5838 5838 5839 5839 5839 5840 5841 5841 5841 5843 5845 5845 5849 5852 5852 5848 5847 5851 5847 5849 5849 5848 5851 5854 5857 5858
5842 5841 5840 5839 5839 5839 5838 5838 5837 5837 5836 5835 5835 5834 5834 5833 5833 5833 5834 5834 5834 5834 5834 5835 5836 5835 5834 5835 5835 5837 5837 5839 5841 5844 5843 5844 5842 5849 5842 5844 5842 5844 5844 5848 5849
5838 5837 5837 5836 5835 5835 5834 5834 5833 5832 5831 5829 5829 5829 5829 5829 5827 5826 5828 5828 5828 5829 5828 5830 5832 5827 5828 5830 5830 5831 5831 5832 5834 5836 5834 5833 5834 5836 5840 5832 5835 5835 5836 5837 5840
5835 5834 5834 5833 5834 5832 5831 5830 5830 5829 5828 5826 5826 5824 5824 5823 5822 5821 5822 5823 5823 5823 5823 5825 5824 5822 5821 5822 5823 5823 5824 5824 5824 5825 5827 5828 5825 5828 5829 5832 5823 5827 5826 5827 5830
5834 5832 5831 5831 5830 5830 5829 5827 5827 5828 5831 5825 5824 5821 5820 5821 5820 5814 5817 5818 5817 5817 5816 5821 5818 5815 5815 5816 5815 5815 5815 5816 5817 5816 5817 5819 5819 5823 5827 5823 5823 5817 5820 5820 5820
5833 5832 5831 5830 5828 5828 5827 5826 5826 5828 5826 5823 5821 5819 5818 5816 5815 5814 5812 5812 5812 5810 5810 5813 5812 5810 5810 5809 5809 5809 5807 5808 5807 5809 5805 5811 5812 5813 5818 5817 5818 5820 5808 5811 5810
5831 5830 5829 5827 5827 5826 5825 5825 5826 5827 5825 5822 5819 5817 5815 5814 5811 5811 5809 5810 5806 5805 5810 5805 5808 5810 5806 5802 5802 5803 5804 5803 5804 5804 5798 5806 5804 5802 5807 5808 5809 5806 5809 5803 5800
5831 5830 5829 5828 5827 5826 5825 5825 5825 5824 5821 5819 5816 5814 5811 5809 5807 5804 5804 5805 5795 5796 5795 5800 5804 5799 5791 5794 5793 5795 5797 5795 5794 5796 5797 5802 5797 5798 5794 5796 5791 5793 5795 5797 5797
5832 5830 5830 5828 5827 5826 5825 5824 5823 5821 5819 5816 5813 5811 5809 5804 5802 5797 5796 5791 5786 5786 5787 5786 5786 5786 5785 5784 5785 5784 5785 5789 5782 5780 5778 5785 5789 5792 5778 5777 5778 5779 5780 5785 5779
5832 5830 5828 5827 5826 5824 5824 5822 5820 5817 5814 5811 5808 5805 5802 5797 5794 5790 5787 5776 5777 5773 5774 5773 5767 5771 5774 5773 5773 5774 5777 5777 5777 5769 5768 5772 5778 5776 5760 5760 5764 5765 5764 5765 5766
5831 5829 5828 5826 5824 5822 5821 5818 5816 5813 5810 5806 5802 5799 5795 5790 5785 5781 5777 5768 5767 5766 5762 5759 5757 5759 5759 5763 5760 5761 5762 5758 5758 5755 5754 5754 5761 5754 5752 5746 5751 5753 5753 5752 5752
5829 5828 5825 5823 5822 5819 5817 5814 5811 5807 5804 5801 5797 5792 5787 5780 5775 5771 5767 5761 5758 5755 5753 5750 5746 5744 5743 5746 5746 5745 5746 5740 5741 5745 5742 5745 5747 5741 5735 5732 5736 5738 5740 5739 5737
5827 5825 5823 5821 5819 5816 5813 5810 5806 5803 5799 5795 5791 5786 5780 5773 5768 5762 5758 5754 5751 5748 5744 5742 5739 5731 5731 5735 5737 5729 5728 5727 5727 5729 5733 5732 5734 5719 5717 5715 5721 5720 5727 5726 5727
5824 5822 5820 5817 5815 5812 5809 5805 5801 5798 5794 5790 5785 5779 5773 5767 5762 5758 5753 5748 5745 5742 5738 5733 5730 5724 5720 5721 5721 5718 5717 5716 5709 5711 5712 5716 5711 5713 5711 5708 5709 5711 5711 5710 5711
5821 5819 5816 5814 5811 5808 5805 5801 5797 5793 5789 5784 5780 5774 5769 5763 5758 5752 5747 5743 5739 5736 5732 5727 5722 5716 5712 5711 5709 5708 5706 5706 5704 5696 5694 5703 5700 5695 5700 5703 5702 5695 5695 5691 5695
5817 5815 5813 5810 5807 5804 5801 5797 5792 5788 5784 5779 5775 5770 5765 5759 5754 5748 5742 5738 5735 5731 5726 5722 5715 5709 5703 5703 5702 5699 5694 5693 5692 5689 5684 5680 5685 5678 5688 5686 5698 5686 5683 5680 5684
5812 5810 5808 5806 5803 5800 5796 5792 5788 5783 5779 5774 5770 5765 5760 5754 5748 5742 5736 5732 5729 5726 5722 5718 5711 5705 5701 5697 5694 5691 5684 5683 5683 5680 5677 5674 5669 5666 5669 5674 5676 5676 5674 5669 5675
Wind_Speed
45 46 42 40 38 40 38 36 35 31 30 25 20 21 20 20 20 20 21 21 20 20 20 18 17 16 17 17 15 20 25 24 16 13 17 26 23 19 21 16 14 13 14 15 13
37 37 35 34 34 33 34 32 26 25 22 17 16 18 18 17 17 18 20 20 21 21 21 20 20 19 18 19 19 21 24 21 15 14 17 21 26 23 24 22 17 14 12 12 14
26 29 27 28 29 27 25 26 23 24 20 17 16 17 17 16 17 17 21 21 21 21 23 22 21 22 20 21 20 20 22 22 22 23 34 9 21 23 25 25 19 14 10 9 12
21 20 20 22 22 23 22 20 20 20 19 17 17 18 18 18 20 19 22 24 22 23 24 23 21 22 21 21 22 23 21 27 27 26 40 34 25 32 26 17 24 18 12 9 10
22 22 23 21 21 20 17 17 17 18 18 18 19 20 21 21 21 21 24 26 25 23 25 24 22 22 22 21 23 23 22 28 34 40 31 37 36 32 33 29 28 23 17 16 16
23 22 20 19 19 18 17 17 18 20 20 19 20 20 20 20 20 19 22 25 25 24 25 24 23 23 22 21 20 22 24 26 34 34 33 37 37 41 32 33 27 25 24 22 22
21 20 18 18 18 18 18 18 20 21 21 20 20 20 20 20 21 20 20 21 23 24 26 22 22 22 23 21 19 22 22 25 25 30 36 36 41 44 40 37 30 29 28 27 28
18 18 18 17 18 19 18 19 20 20 21 21 21 20 21 22 23 22 22 22 23 25 25 25 23 24 23 23 17 20 23 25 24 28 35 35 37 37 40 40 37 33 32 32 34
17 17 17 16 18 18 18 19 20 20 20 21 21 21 21 22 23 24 23 23 24 24 26 25 26 28 24 22 21 19 19 21 21 31 29 35 35 26 35 36 39 38 36 34 32
17 17 16 16 17 17 17 19 19 19 19 20 19 19 19 20 21 22 22 23 23 25 27 27 26 25 28 24 18 12 19 21 19 30 28 30 32 42 40 39 42 40 38 36 35
15 15 15 16 16 17 16 18 18 18 18 18 17 17 17 19 19 19 19 19 20 22 24 25 26 25 25 26 24 24 28 19 19 21 28 29 27 37 39 41 43 39 42 39 40
16 17 18 18 19 19 19 19 21 21 22 23 23 24 24 25 25 24 23 22 21 21 23 24 22 25 26 28 30 29 31 30 26 25 27 28 30 29 38 42 41 47 45 42 42
12 13 12 12 12 12 13 15 16 17 18 22 22 23 24 26 27 29 26 26 26 24 25 24 19 28 29 29 31 31 31 30 27 22 29 37 37 34 37 48 49 45 44 44 42
13 13 14 14 14 14 14 15 14 14 13 19 18 20 19 19 22 20 19 20 23 23 25 25 25 29 33 31 29 32 30 31 35 32 28 30 35 33 35 37 47 43 45 43 39
7 6 7 8 8 9 10 12 12 9 3 20 20 19 19 19 18 26 20 19 19 18 23 14 19 28 31 28 27 27 27 31 28 34 35 33 35 30 27 33 35 40 43 42 40
6 7 8 8 7 7 7 7 7 5 11 17 16 16 18 20 22 22 26 24 22 26 23 20 22 23 26 23 20 21 29 27 28 27 36 30 33 35 31 32 32 32 45 42 41
7 7 7 7 6 5 5 5 4 3 8 13 12 13 16 17 22 20 23 18 25 25 14 21 12 18 21 24 26 24 24 25 28 29 36 26 32 36 31 34 33 33 36 35 39
7 7 7 6 7 7 7 6 6 8 10 12 14 16 20 20 23 27 23 19 30 34 31 21 22 27 26 39 28 24 23 23 31 33 35 30 35 31 33 31 42 41 44 43 34
6 7 7 7 7 7 6 8 8 12 15 17 19 19 15 25 27 28 31 37 42 40 39 39 38 34 30 18 22 24 27 28 41 44 40 38 37 34 47 45 42 48 49 40 50
7 8 8 8 7 6 7 10 14 17 20 20 20 22 23 27 28 28 29 38 42 45 43 43 50 46 43 47 48 44 36 37 42 41 42 37 36 39 47 48 52 51 50 48 44
8 9 10 10 9 11 12 16 17 19 19 20 22 24 26 30 31 29 26 36 39 35 37 40 44 46 46 42 42 35 37 30 40 41 44 45 38 45 54 60 52 40 42 42 36
10 12 12 13 14 14 16 19 19 19 22 22 23 26 32 35 30 27 28 32 32 33 32 34 37 39 40 39 43 44 41 52 56 46 38 37 39 63 41 44 54 49 48 49 51
12 13 14 16 17 18 19 20 20 21 21 21 24 31 32 32 27 29 28 29 28 29 29 28 30 37 37 23 19 27 35 52 55 58 60 57 48 43 38 42 48 41 56 53 55
12 13 15 16 17 19 21 21 21 21 21 21 27 30 31 33 31 28 27 26 25 28 24 29 29 28 27 24 26 31 29 29 45 54 56 57 63 62 62 62 66 59 57 57 47
12 12 15 15 17 20 22 22 23 23 22 23 24 27 30 30 29 28 28 25 25 21 22 28 28 26 25 24 24 23 26 25 30 43 57 57 45 52 51 54 35 20 35 48 49
13 13 14 14 18 20 22 22 24 24 23 23 23 27 28 29 31 29 27 24 21 21 20 25 29 28 22 12 19 25 24 26 27 30 33 48 42 40 44 20 45 10 29 34 29
14 15 15 16 19 21 23 24 25 26 23 23 23 24 27 27 30 31 27 24 21 16 18 22 26 29 22 21 19 22 20 25 20 25 28 35 43 56 43 36 36 31 32 32 39
Wind_Direction
271 274 280 275 276 277 281 281 285 287 286 284 270 271 265 265 268 266 247 237 242 251 257 263 269 272 271 259 245 231 225 219 216 234 253 267 240 242 236 249 267 285 299 284 269
276 275 273 273 275 279 282 281 280 280 284 281 272 263 259 262 269 262 241 239 246 254 254 258 264 271 271 258 248 239 234 216 211 227 240 271 248 236 236 244 252 268 289 285 256
279 274 272 276 280 279 281 279 276 278 279 274 266 259 259 263 268 260 241 243 251 257 255 259 265 270 274 261 251 246 235 213 214 227 218 222 258 234 245 249 258 269 284 283 260
283 280 278 278 279 283 282 273 269 273 275 273 265 260 260 261 263 258 248 249 254 259 250 262 268 268 274 265 252 244 234 219 211 242 234 226 235 255 241 236 259 269 271 263 267
284 284 284 282 281 279 277 273 271 272 273 271 271 269 267 264 259 255 251 254 255 253 251 261 268 269 273 268 253 250 242 228 225 223 236 229 230 247 238 246 256 265 261 262 265
286 283 280 278 277 278 275 273 274 274 275 274 276 275 272 263 258 255 258 258 255 256 257 261 269 272 271 271 258 251 249 240 237 237 237 234 238 240 246 246 250 255 259 261 267
279 276 275 275 278 280 279 279 277 276 276 276 276 276 275 264 260 257 261 259 256 258 261 262 264 269 270 273 262 254 250 249 245 241 235 239 235 246 250 248 245 247 250 255 258
277 278 279 282 282 281 281 281 279 278 279 278 277 276 276 266 262 261 262 263 262 265 266 261 266 270 268 269 264 258 252 251 251 244 243 246 244 254 253 255 256 251 251 255 259
283 285 285 286 284 282 284 284 284 286 288 283 281 280 279 273 270 267 264 265 265 264 266 264 260 270 266 263 262 259 257 253 249 256 247 246 246 237 252 253 255 254 257 258 262
284 286 291 293 291 289 289 286 286 289 290 285 284 281 278 279 277 274 269 265 266 267 267 268 266 256 259 260 259 256 273 246 246 256 249 252 244 244 246 241 256 258 250 252 260
288 289 290 290 291 289 290 289 289 289 286 285 284 283 282 281 278 277 275 275 273 273 271 269 268 266 262 257 250 219 231 238 228 239 256 251 239 246 243 249 245 246 258 253 261
293 295 294 292 289 288 285 283 283 285 284 282 282 282 282 280 282 279 277 276 274 274 272 272 272 268 262 257 259 251 255 249 243 230 236 248 251 229 262 257 254 252 252 250 253
296 295 296 297 298 298 294 290 288 287 283 281 280 278 277 277 275 277 276 275 274 272 272 272 263 265 269 271 266 264 261 258 256 251 256 248 252 245 235 256 254 255 255 253 255
292 293 292 291 289 288 285 286 285 287 303 286 290 289 288 286 282 283 281 278 277 273 270 273 268 264 271 270 269 266 263 263 257 254 251 267 263 254 252 240 264 262 256 256 254
344 343 324 310 306 303 302 293 291 295 206 280 296 294 292 290 294 288 286 280 277 271 278 263 278 272 266 272 270 267 264 259 259 263 258 253 255 252 255 253 255 268 269 259 254
338 337 331 327 323 321 312 307 307 348 264 282 296 294 294 295 291 293 297 283 277 273 274 277 258 264 274 261 258 264 269 271 261 257 259 259 255 256 250 255 244 247 267 265 253
353 349 348 339 339 344 348 346 339 265 291 305 308 304 301 297 296 293 289 288 280 271 277 272 276 294 276 269 273 274 276 273 268 265 268 269 263 265 255 250 251 236 247 260 269
14 18 15 10 10 9 1 340 7 326 324 320 318 317 306 305 296 292 281 281 278 277 276 270 254 250 252 257 247 241 250 258 262 261 265 261 264 277 271 252 239 247 245 247 244
24 13 360 356 355 348 336 30 339 328 321 316 314 313 299 305 305 289 282 274 274 274 269 269 260 236 252 265 260 266 253 256 258 257 251 259 256 257 274 254 247 253 257 259 255
3 348 348 346 336 327 328 329 326 324 326 321 320 319 315 310 310 304 293 281 278 279 275 270 266 262 255 256 259 259 274 268 260 269 263 261 258 258 253 252 256 254 248 249 252
340 341 339 333 328 328 333 325 322 328 334 331 328 326 325 321 312 303 291 282 287 285 282 277 273 271 269 265 263 257 246 263 250 241 253 260 261 251 253 259 261 256 265 260 247
334 341 341 338 333 331 328 325 322 328 334 334 333 336 334 330 318 305 294 290 294 293 290 288 286 281 278 270 267 262 256 247 252 247 255 255 259 258 267 264 270 271 264 265 261
330 333 332 333 329 330 330 329 324 326 331 335 338 339 340 341 330 318 310 303 300 299 302 301 298 292 282 276 268 262 261 252 252 256 256 261 268 267 260 251 260 275 263 271 263
316 322 325 328 330 330 329 330 328 327 326 326 335 343 344 345 337 329 317 308 303 311 313 321 312 305 298 288 282 282 281 270 263 250 254 252 255 252 254 266 266 268 264 257 256
302 309 316 325 330 332 335 337 332 327 325 327 336 346 346 341 341 328 322 309 305 308 319 326 324 310 297 288 288 300 283 272 272 267 248 241 242 249 249 249 271 257 245 250 253
290 299 305 316 321 324 328 331 334 332 324 324 327 336 341 340 340 335 324 314 306 312 324 333 340 334 327 331 276 276 274 274 282 273 276 273 246 233 232 247 238 247 259 253 260
287 288 297 302 309 318 323 327 328 333 324 320 322 329 340 340 341 341 332 316 308 311 324 329 339 343 338 315 293 291 285 274 276 286 283 280 271 262 248 250 253 253 256 249 270